Youngstown, OH

8:39 PM EDT on October 18, 2019 (GMT -0400)
Youngstown-Warren Regional

Weather History for KYNG - September, 2019

Change the Weather History Date:

Thursday, September 19, 2019

  Actual Average Record
Temperature  
Mean Temperature 63 °F 61 °F  
Max Temperature 77 °F 71 °F 90 °F (1935)
Min Temperature 49 °F 50 °F 35 °F (1959)
Degree Days  
Heating Degree Days 2 6  
Month to date heating degree days 13 63  
Since 1 July heating degree days 19 101  
Cooling Degree Days 0 1  
Month to date cooling degree days 62 41  
Year to date cooling degree days 726 527  
Growing Degree Days 13 (Base 50)    
Moisture  
Dew Point 49 °F    
Average Humidity 63    
Maximum Humidity 77    
Minimum Humidity 43    
Precipitation  
Precipitation 0.00 in 0.13 in 1.05 in (2003)
Month to date precipitation 4.30 2.41  
Year to date precipitation 38.82 28.63  
Snow  
Snow 0.00 in 0.00 in - ()
Month to date snowfall 0.0 0.0  
Since 1 July snowfall 0.0 0.0  
Since 1 September snowfall 0.0 0.0  
Snow Depth 0.00 in    
Sea Level Pressure  
Sea Level Pressure 30.21 in    
Wind  
Wind Speed 7 mph ()    
Max Wind Speed 15 mph    
Max Gust Speed 19 mph    
Visibility 10.0 miles    
Events      
T = Trace of Precipitation, MM = Missing Value Source: Averaged Metar Reports

Daily Weather History Graph

Daily Weather History Graph

Search for Another Location

Airport or City:

Astronomy

Sep. 19, 2019 Rise Set
Actual Time 7:06 AM EDT 7:25 PM EDT
Civil Twilight 6:39 AM EDT 7:53 PM EDT
Nautical Twilight 6:06 AM EDT 8:25 PM EDT
Astronomical Twilight 5:33 AM EDT 8:58 PM EDT
Moon 10:30 PM EDT 12:11 PM EDT
Length of Visible Light 13h 13m
Length of Day
12h 18m
Waning Gibbous, 74% of the Moon is Illuminated
Sep 19
Waning Gibbous
Sep 21
Last Quarter
Sep 28
New
Oct 5
First Quarter
Oct 13
Full

Hourly Weather History & Observations

Time (EDT) Temp. Dew Point Humidity Pressure Visibility Wind Dir Wind Speed Gust Speed Precip Events Conditions
12:51 AM 55.0 °F 46.0 °F 72% 30.22 in 10.0 mi East 9.2 mph - N/A   Partly Cloudy
1:51 AM 54.0 °F 45.0 °F 72% 30.24 in 10.0 mi East 8.1 mph - N/A   Clear
2:51 AM 52.0 °F 44.1 °F 74% 30.23 in 10.0 mi ESE 5.8 mph - N/A   Clear
3:51 AM 52.0 °F 44.1 °F 74% 30.22 in 10.0 mi East 6.9 mph - N/A   Clear
4:51 AM 50.0 °F 43.0 °F 77% 30.22 in 10.0 mi ESE 6.9 mph - N/A   Clear
5:51 AM 50.0 °F 43.0 °F 77% 30.21 in 10.0 mi ESE 9.2 mph - N/A   Clear
6:51 AM 52.0 °F 44.1 °F 74% 30.23 in 10.0 mi ESE 9.2 mph - N/A   Partly Cloudy
7:51 AM 53.1 °F 45.0 °F 74% 30.25 in 10.0 mi ESE 8.1 mph - N/A   Partly Cloudy
8:51 AM 57.0 °F 46.9 °F 69% 30.25 in 10.0 mi ESE 11.5 mph - N/A   Partly Cloudy
9:51 AM 62.1 °F 48.9 °F 62% 30.25 in 10.0 mi SE 10.4 mph - N/A   Partly Cloudy
10:51 AM 66.0 °F 50.0 °F 56% 30.25 in 10.0 mi SSE 6.9 mph - N/A   Partly Cloudy
11:51 AM 69.1 °F 51.1 °F 53% 30.24 in 10.0 mi SE 9.2 mph - N/A   Partly Cloudy
12:51 PM 73.0 °F 53.1 °F 49% 30.23 in 10.0 mi SSE 8.1 mph - N/A   Partly Cloudy
1:51 PM 75.0 °F 53.1 °F 46% 30.22 in 10.0 mi SE 9.2 mph - N/A   Partly Cloudy
2:51 PM 75.0 °F 53.1 °F 46% 30.20 in 10.0 mi SSE 12.7 mph - N/A   Partly Cloudy
3:51 PM 75.9 °F 53.1 °F 45% 30.19 in 10.0 mi SE 5.8 mph - N/A   Partly Cloudy
4:51 PM 75.9 °F 54.0 °F 46% 30.19 in 10.0 mi ESE 9.2 mph - N/A   Partly Cloudy
5:51 PM 75.0 °F 52.0 °F 44% 30.17 in 10.0 mi SE 9.2 mph - N/A   Partly Cloudy
6:51 PM 71.1 °F 52.0 °F 51% 30.18 in 10.0 mi ESE 6.9 mph - N/A   Partly Cloudy
7:51 PM 63.0 °F 52.0 °F 67% 30.19 in 10.0 mi ESE 6.9 mph - N/A   Scattered Clouds
8:51 PM 62.1 °F 51.1 °F 67% 30.20 in 10.0 mi ESE 8.1 mph - N/A   Scattered Clouds
9:51 PM 60.1 °F 48.9 °F 67% 30.19 in 10.0 mi ESE 9.2 mph - N/A   Partly Cloudy
10:51 PM 59.0 °F 48.0 °F 67% 30.19 in 10.0 mi ESE 8.1 mph - N/A   Partly Cloudy
11:51 PM 57.9 °F 48.9 °F 72% 30.19 in 10.0 mi ESE 8.1 mph - N/A   Clear